Tracking 18942 objects as of 17-Jan-2018
HD Live streaming from Space Station
objects crossing your sky now

FENGYUN 1C DEB

Track FENGYUN 1C DEB now!
10-day predictions


NORAD ID: 32176
Int'l Code: 1999-025CTW
Perigee: 721.5 km
Apogee: 811.4 km
Inclination: 99.4 °
Period: 100.0 minutes
Semi major axis: 7137 km
RCS: 0.011 m2 (small)
Launch date: May 10, 1999
Source: People's Republic of China (PRC)
Launch site: Taiyaun Space Center, China (TSC)

Note: This is SATELLITE DEBRIS
aabbcc
Your satellite tracking list
Your tracking list is empty




NASA's NSSDC Master Catalog

Two Line Element Set (TLE):
1 32176U 99025CTW 18016.84860206  .00000613  00000-0  20788-3 0  9992
2 32176  99.4339  44.1984 0062975 286.4457  72.9813 14.39767758552080
Source of the keplerian elements: AFSPC